Aérodrome :
LOGIN :

S'inscrire | Disclaimer

   EN    FR    IT 

 










Légende :    VFR   VFR Marginal   IFR   IFR Intensif   IFR Très Intensif
Visi : 
Plafond : 
>= 8 km
>= 3000ft
5 à 8 km
1000 à 3000 ft
1500m à 5 km
500 à 1000 ft
800 à 1500m
200 à 500 ft
< 800m
< 200 ft
Symboles :   Orages  Brouillard  Fortes neiges  Fortes précipitations  Vent > 20 kt
SIGMETs :   Divers  Orages  Givrage  Turbulence  Onde Orograph.  Cendres Volcan.







- Altitude de l'aérodrome : 699 ft
- Code IATA : PAD


EDLP - Paderborn Lippstadt

DERNIER METAR :
  • 231720Z 27012G25KT 230V320 3100 -SHRA BR OVC003 10/10 Q1019

METARs EXPIRÉS :
  • 231650Z 27012G22KT 230V320 3300 -SHRA BR OVC003 10/10 Q1019
  • 231620Z 26013G26KT 180V310 3200 OVC004 10/10 Q1019
  • 231550Z 26013KT 220V300 2500 -DZ BR OVC005 ///// Q1019
  • 231520Z 25016G26KT 230V300 2700 -DZ BR OVC005 ///// Q1019
  • 231450Z 26015G27KT 230V310 3000 -DZ BR OVC005 ///// Q1019

TAF TAF EDLP
Valide du 23 à 18h jusqu'au 24 à 18h UTC


231700Z 2318/2418 26015G25KT 2800 -DZ BR BKN003
TEMPO 2318/2323 5000 BKN014
BECMG 2403/2406 29010KT
BECMG 2409/2412 7000 BKN015
Pas de NOTAMs connus pour ce terrain.



MET'MAP, la Météo Aéronautique d'un coup d'oeil ! - Copyright ORBIFLY Décembre 2007 - Disclaimer

ORBIFLY MET'MAP TEAM :

Programmation & Développement : Alexandra Zaïnal
Conception & Développement : Baudouin d'Aumeries
Co-Programmation & Développement : Marc-Olivier Méhu
Soutien technique & logistique : Manuel Goepfert

Contact : metmap@orbifly.com




SOURCES & CREDITS :

   NOAA